Location: Sevilla
(37.3933°N, 5.9839°W)
Time: 04:47:26
(UTC+02:00)

Vanguard 3 - Pass Details

Date: 28 June 2024
Orbit: 508 x 3231 km, 33.4° (Epoch: 15 July)

Event Time Altitude Azimuth Distance (km) Brightness Sun altitude
Rises 08:01:01 0° 225° (SW) 7,125 11.4 9.0°
Reaches altitude 10° 08:06:25 10° 220° (SW) 5,947 11.1 10.0°
Maximum altitude 08:22:22 44° 157° (SSE) 3,001 10.2 12.9°
Drops below altitude 10° 08:32:37 10° 90° (E) 3,914 12.4 14.9°
Sets 08:35:22 0° 83° (E) 4,583 12.7 15.4°
